Regional Weather Roundup
Issued by NWS Bismarck, ND

Home | Current Version | Previous Version | Text Only | Print | Product List | Glossary On
Versions: 1 2 3 4 5 6 7 8 9 10 11 12 13 14 15 16 17 18 19 20 21 22 23 24 25 26 27 28 29 30 31 32 33 34 35 36 37 38 39 40 41 42 43 44 45 46 47 48 49 50
000
ASUS43 KBIS 212220
RWRBIS

NWR BROADCAST TEXT
NATIONAL WEATHER SERVICE BISMARCK ND
400 PM CST SUN DEC 21 2014

NOTE: "FAIR" INDICATES FEW OR NO CLOUDS BELOW 12,000 FEET WITH NO
SIGNIFICANT WEATHER AND/OR OBSTRUCTIONS TO VISIBILITY.


CITY           SKY/WX    TMP DP  RH WIND       PRES   REMARKS
WILLISTON      CLOUDY    37  27  67 CALM      29.33S
MINOT          CLOUDY    37  30  75 SE10      29.38F
MINOT AFB      CLOUDY    32  32 100 SE10      29.38F
BISMARCK       CLEAR     37  28  70 SE8       29.43S
DICKINSON      CLOUDY    41  28  60 S7        29.33S
GARRISON         N/A     37  31  78 SE10      29.38F
HETTINGER ARPT CLOUDY    40  28  62 SW7       29.37F
JAMESTOWN      CLOUDY    32  30  92 SE10      29.49F
BEACH          LGT RAIN  37  37 100 S6        29.34F
CARRINGTON     CLOUDY    32  32 100 MISG      29.50S FOG
CROSBY         MOCLDY    34  32  93 E3        29.35R
HARVEY         CLOUDY    30  30 100 SE15      29.46F FOG     WCI  19
HAZEN          MOCLDY    39  28  65 SE6       29.39S
LINTON         CLOUDY    32  32 100 SE10G20   29.44F
MANDAN         FAIR      36  27  69 SE8       29.43R
OAKES            N/A     36  32  87 SE9       29.51S
RUGBY          FAIR      28  28 100 SE12      29.45F WCI  18
STANLEY        MOCLDY    34  34 100 SE9       29.35S
TIOGA          CLOUDY    36  36 100 MISG      29.37R
WATFORD CITY   FAIR      39  28  65 S6        29.32R
$$

CITY           SKY/WX    TMP DP  RH WIND       PRES   REMARKS
GRAND FORKS    CLOUDY    32  30  92 S14       29.60R FOG
GRAND FORKS AF CLOUDY    31  31 100 S13       29.59R
DEVILS LAKE    CLOUDY    30  25  80 SE10      29.49S
FARGO          CLOUDY    34  31  88 SE13      29.59S
CANDO          CLOUDY    28  28 100 SE15      29.50S FOG     WCI  17
CAVALIER       CLOUDY    32  32 100 S10       29.58S FOG
GWINNER        CLOUDY    34  34 100 SE17      29.54S
LANGDON        FOG       30  28  93 MISG      29.51S VSB 1/2
ROLLA          CLOUDY    27  27 100 SE8       29.48S WCI  18
WALHALLA         N/A     30  30 100 SE12      29.57S FOG
$$

CITY           SKY/WX    TMP DP  RH WIND       PRES   REMARKS
ABERDEEN       CLOUDY    34  30  85 S13       29.52S
MOBRIDGE       CLEAR     38  30  73 E12       29.40F
BUFFALO          N/A     39  34  82 SW8       29.31F
RAPID CITY     CLOUDY    45  26  47 NW10      29.39R
GLASGOW        CLOUDY    32  30  92 NE3       29.30S
SIDNEY         CLOUDY    36  28  75 S8        29.36S
WOLF POINT     CLOUDY    34  28  79 SW5       29.33R
GLENDIVE       CLOUDY    36  34  93 SW8       29.35S
MILES CITY     LGT RAIN  40  34  79 W8        29.36R
BAKER          LGT RAIN  39  39 100 CALM      29.35R
$$

CITY           SKY/WX    TMP DP  RH WIND       PRES   REMARKS
BILLINGS       PTSUNNY   50  19  29 NW35G53   29.45R
GREAT FALLS    CLOUDY    46  23  40 W18G28    29.47R
REGINA         PTCLDY    25  25 100 E14       29.34S WCI  13
ESTEVAN        MOCLDY    27  25  93 E10       29.35R WCI  17
$$




USA.gov is the U.S. government's official web portal to all federal, state and local government web resources and services.